Location: Unspecified
(22.6800°N, 112.2000°E)
Time: 13:01:14
(UTC+08:00)

Tiros 1 despin weight - Pass Details

Date: 01 August 2021
Orbit: 593 x 641 km, 48.2° (Epoch: 26 September)

Event Time Altitude Azimuth Distance (km) Brightness Sun altitude
Rises 20:56:41 0° 317° (NW) 2,919 ? -22.5°
Reaches altitude 10° 20:59:01 10° 319° (NW) 2,004 ? -23.0°
Maximum altitude 21:03:38 78° 45° (NE) 639 ? -23.8°
Enters shadow 21:03:41 78° 55° (NE) 639 ? -23.9°
